Back to catalog

CZ-6A DEB

AlivePO
NORAD 61451·DEBRIS·🇨🇳 China

Launched Aug 6, 2024 from Taiyuan Satellite Launch Center

Loading…

Next Passes (next 24 hours)

TLE

FreshSource: Space-Track

Epoch: Sep 14, 2026, 06:44 UTC

1 61451U 24140ZH  26257.28092616  .00004308  00000-0  72652-3 0  9994
2 61451  89.0328 262.6509 0106446 292.7779  66.2218 14.65619545106304

Track CZ-6A DEB in real time with AllMySat

Download on the App Store